Regional Weather Roundup
Issued by NWS Northern Indiana

Home | Current Version | Previous Version | Text Only | Print | Product List | Glossary On
Versions: 1 2 3 4 5 6 7 8 9 10 11 12 13 14 15 16 17 18 19 20 21 22 23 24 25 26 27 28 29 30 31 32 33 34 35 36 37 38 39 40 41 42 43 44 45 46 47 48 49 50
000
ASUS43 KIWX 080800
RWRIWX

KIWX WEATHER ROUNDUP
NATIONAL WEATHER SERVICE NORTHERN INDIANA
300 AM EST THU DEC 08 2016

NOTE: "FAIR" INDICATES FEW OR NO CLOUDS BELOW 12,000 FEET WITH NO
SIGNIFICANT WEATHER AND/OR OBSTRUCTIONS TO VISIBILITY.

* THESE STATIONS ARE NOT UNDER NWS QUALITY CONTROL. THEY ALSO MAY NOT
  REPORT WEATHER SUCH AS PRECIPITATION OR FOG.

INZ001>027-080900-
NORTHERN INDIANA

CITY           SKY/WX    TMP DP  RH WIND       PRES   REMARKS
SOUTH BEND     CLOUDY    23  16  74 SW16      30.13S WCI  10
GOSHEN         FLURRIES  23  15  71 W17       30.13R WCI   9
ANGOLA*        CLOUDY    25  19  80 W12       30.08R WCI  14
FORT WAYNE     CLOUDY    24  16  71 W22G29    30.14R WCI   9
PERU/GRISSOM   CLOUDY    24  15  69 W21       30.16R WCI   9

$$
INZ028>050-080900-
CENTRAL INDIANA

CITY           SKY/WX    TMP DP  RH WIND       PRES   REMARKS
LAFAYETTE      CLOUDY    23  15  71 W17G24    30.23R WCI   9
KOKOMO*        CLOUDY    24  17  74 W15       30.19R WCI  11
MUNCIE*        CLOUDY    26  17  68 NW16G24   30.17R WCI  14
INDIANAPOLIS   CLOUDY    26  18  71 W16       30.21R WCI  14

$$
MIZ043>046-050>051-056>058-064>065-071>073-077>080-080900-
SOUTHWEST LOWER MICHIGAN

CITY           SKY/WX    TMP DP  RH WIND       PRES   REMARKS
BATTLE CREEK   CLOUDY    26  20  77 W20       30.05S WCI  12
BENTON HARBOR  CLOUDY    28  18  66 W23G29    30.11S WCI  14
COLDWATER*     CLOUDY    26  19  75 W17G23    30.07R WCI  13
HILLSDALE*     CLOUDY    27  19  74 W16G23    30.03R WCI  14
HOLLAND        CLOUDY    27  19  72 W21       30.06S WCI  13
GRAND RAPIDS   CLOUDY    27  19  72 W18G32    30.03S WCI  14
KALAMAZOO      CLOUDY    27  18  69 W17       30.07R WCI  14
STURGIS*       CLOUDY    25  18  73 W13G18    30.09R WCI  14
THREE RIVERS*  CLOUDY    26  19  73 W16G24    30.10R WCI  14

$$
OHZ001>008-015>018-024>025-080900-
NORTHWEST OHIO

CITY           SKY/WX    TMP DP  RH WIND       PRES   REMARKS
DEFIANCE       CLOUDY    27  17  66 W9G20     30.11R WCI  18
FINDLAY        CLOUDY    28  18  66 W18       30.09S WCI  15
TOLEDO EXPRESS CLOUDY    27  19  72 W21G29    30.07S WCI  13
TOLEDO METCALF CLOUDY    28  19  69 W17G26    30.08S WCI  16
LIMA           MOCLDY    26  20  77 W18       30.11R WCI  13

$$
AND FOR LAKE MICHIGAN COASTAL AND OPEN LAKE BUOY OBSERVATIONS

STATION/POSITION TEMP    WIND        PRES    VSBY  WAVE
                 AIR SEA DIR/SP/G                  HT/PER
                 (F)     (DEG/KT/KT) (MB)    (MI)  (FT/S)
CALUMET HARBOR    24     250/ 11/ 17 1020.7R
MICHIGAN CITY     26     240/ 21/ 23   N/A
BURNS HARBOR      27     260/ 22/ 27 1021.7R
SAINT JOSEPH      29     270/ 17/ 25 1019.6F

$$
&&



USA.gov is the U.S. government's official web portal to all federal, state and local government web resources and services.